Regional Weather Roundup
Issued by NWS Sioux Falls, SD

Home | Current Version | Previous Version | Graphics & Text | Print | Product List | Glossary Off
Versions: 1 2 3 4 5 6 7 8 9 10 11 12 13 14 15 16 17 18 19 20 21 22 23 24 25 26 27 28 29 30 31 32 33 34 35 36 37 38 39 40 41 42 43 44 45 46 47 48 49 50

000
ASUS43 KFSD 011902
RWRFSD

WEATHER ROUNDUP FOR SE SOUTH DAKOTA/SW MINNESOTA/NW IOWA
NATIONAL WEATHER SERVICE SIOUX FALLS SD
100 PM CST SUN FEB 01 2015

NOTE: "FAIR" INDICATES FEW OR NO CLOUDS BELOW 12,000 FEET WITH NO
SIGNIFICANT WEATHER AND OR OBSTRUCTIONS TO VISIBILITY.


SDZ038>040-050-052>070-012000-
SOUTHEAST SOUTH DAKOTA

CITY           SKY/WX    TMP DP  RH WIND       PRES   REMARKS
CHAMBERLAIN    NOT AVBL
HURON          MIX PCPN   4  -4  69 N20       30.40S WCI -17
MADISON        FAIR       5   3  92 N22G28    30.25F WCI -16
MITCHELL       MIX PCPN   3  -3  76 N23       30.38S WCI -19
SIOUX FALLS    LGT SNOW   7   0  73 N21G32    30.24F BLWGSNOWWCI -13
WINNER         LGT SNOW   3  -4  72 NW20      30.39S WCI -18
YANKTON          N/A      7   0  72 NW22G29   30.30R VSB 3/4 WCI -14
$$

MNZ071-072-080-081-089-090-097-098-012000-
SOUTHWEST MINNESOTA

CITY           SKY/WX    TMP DP  RH WIND       PRES   REMARKS
FAIRMONT       CLOUDY    14   9  79 N20G28    30.12F WCI  -3
JACKSON        CLOUDY    14   9  79 VRB18G28  30.15R HAZE    WCI  -3
LUVERNE        LGT SNOW  12   5  73 N15G26    30.22R WCI  -4
MARSHALL       CLOUDY    10   0  61 N22G28    30.28S WCI  -9
MONTEVIDEO     PTSUNNY   14   3  62 NE21G28   30.31F WCI  -4
PIPESTONE      PTSUNNY    7   1  78 NE23G29   30.21S HAZE    WCI -14
REDWOOD FALLS  CLOUDY    14   4  64 NE10G23   30.25F WCI   1
TRACY          LGT SNOW  12   7  78 N17       30.24F WCI  -5
WINDOM         LGT SNOW  12   7  79 N24       30.17S WCI  -8
WORTHINGTON    CLOUDY    19   3  49 N24G32    30.17S VSB 3/4 WCI   2
$$

IAZ001>003-012>014-020>022-031-032-NEZ013-014-SDZ071-012000-
NORTHWEST IOWA

CITY           SKY/WX    TMP DP  RH WIND       PRES   REMARKS
ESTHERVILLE    FOG       13  10  88 N25       30.12R VSB 3/4 WCI  -7
SIOUX CITY     HAZE      13   7  77 N26G35    30.18S VSB 3/4 WCI  -7
SPENCER        LGT SNOW  14   8  77 N24G36    30.12R VSB 3/4 WCI  -5
$$

ABBREVIATIONS USED IN REMARKS
   TC - TEMPERATURE IN CELSIUS
  WCI - WIND CHILL INDEX
   HX - HEAT INDEX
  VSB - VISIBILITY



USA.gov is the U.S. government's official web portal to all federal, state and local government web resources and services.